owner,sensor,date,latitude,longitude,vertical_datum,mass_concentration_of_oxygen_in_sea_water,qcFlag 
NERRS,ioos:station:NOAA.NERRS:rkblhwq:1,2017-01-19T21:45:00Z,26.0257,-81.7332,1.0,8.0,1111122 
NERRS,ioos:station:NOAA.NERRS:rkblhwq:1,2017-01-19T22:45:00Z,26.0257,-81.7332,1.0,7.5,1111122 
NERRS,ioos:station:NOAA.NERRS:rkblhwq:1,2017-01-19T23:45:00Z,26.0257,-81.7332,1.0,6.6,1111122 
NERRS,ioos:station:NOAA.NERRS:rkblhwq:1,2017-01-20T00:45:00Z,26.0257,-81.7332,1.0,7.3,1111122 
NERRS,ioos:station:NOAA.NERRS:rkblhwq:1,2017-01-20T01:45:00Z,26.0257,-81.7332,1.0,7.3,1111122 
NERRS,ioos:station:NOAA.NERRS:rkblhwq:1,2017-01-20T03:45:00Z,26.0257,-81.7332,1.0,7.0,1111122 
NERRS,ioos:station:NOAA.NERRS:rkblhwq:1,2017-01-20T04:45:00Z,26.0257,-81.7332,1.0,7.1,1111122 
NERRS,ioos:station:NOAA.NERRS:rkblhwq:1,2017-01-20T05:45:00Z,26.0257,-81.7332,1.0,6.6,1111122 
NERRS,ioos:station:NOAA.NERRS:rkblhwq:1,2017-01-20T06:45:00Z,26.0257,-81.7332,1.0,6.0,1111122 
NERRS,ioos:station:NOAA.NERRS:rkblhwq:1,2017-01-20T07:45:00Z,26.0257,-81.7332,1.0,6.3,1111122 
NERRS,ioos:station:NOAA.NERRS:rkblhwq:1,2017-01-20T08:45:00Z,26.0257,-81.7332,1.0,6.6,1111122 
NERRS,ioos:station:NOAA.NERRS:rkblhwq:1,2017-01-20T09:45:00Z,26.0257,-81.7332,1.0,6.4,1111122 
NERRS,ioos:station:NOAA.NERRS:rkblhwq:1,2017-01-20T10:45:00Z,26.0257,-81.7332,1.0,6.3,1111122 
NERRS,ioos:station:NOAA.NERRS:rkblhwq:1,2017-01-20T11:45:00Z,26.0257,-81.7332,1.0,6.2,1111122 
NERRS,ioos:station:NOAA.NERRS:rkblhwq:1,2017-01-20T12:45:00Z,26.0257,-81.7332,1.0,4.9,1111122 
NERRS,ioos:station:NOAA.NERRS:rkblhwq:1,2017-01-20T13:45:00Z,26.0257,-81.7332,1.0,5.8,1111122 
NERRS,ioos:station:NOAA.NERRS:rkblhwq:1,2017-01-20T14:45:00Z,26.0257,-81.7332,1.0,5.9,1111122 
NERRS,ioos:station:NOAA.NERRS:rkblhwq:1,2017-01-20T15:45:00Z,26.0257,-81.7332,1.0,6.2,1111122 
NERRS,ioos:station:NOAA.NERRS:rkblhwq:1,2017-01-20T16:45:00Z,26.0257,-81.7332,1.0,6.6,1111122 
NERRS,ioos:station:NOAA.NERRS:rkblhwq:1,2017-01-20T17:45:00Z,26.0257,-81.7332,1.0,6.8,1111122 
NERRS,ioos:station:NOAA.NERRS:rkblhwq:1,2017-01-20T20:45:00Z,26.0257,-81.7332,1.0,8.0,1111122 
NERRS,ioos:station:NOAA.NERRS:rkblhwq:1,2017-01-20T21:45:00Z,26.0257,-81.7332,1.0,7.7,1111122 
NERRS,ioos:station:NOAA.NERRS:rkblhwq:1,2017-01-20T22:45:00Z,26.0257,-81.7332,1.0,7.4,1111122 
NERRS,ioos:station:NOAA.NERRS:rkblhwq:1,2017-01-20T23:45:00Z,26.0257,-81.7332,1.0,7.0,1111122 
NERRS,ioos:station:NOAA.NERRS:rkblhwq:1,2017-01-21T00:45:00Z,26.0257,-81.7332,1.0,6.7,1111122 
NERRS,ioos:station:NOAA.NERRS:rkblhwq:1,2017-01-21T01:45:00Z,26.0257,-81.7332,1.0,7.0,1111122 
NERRS,ioos:station:NOAA.NERRS:rkblhwq:1,2017-01-21T02:45:00Z,26.0257,-81.7332,1.0,6.8,1111122 
NERRS,ioos:station:NOAA.NERRS:rkblhwq:1,2017-01-21T03:45:00Z,26.0257,-81.7332,1.0,6.8,1111122 
NERRS,ioos:station:NOAA.NERRS:rkblhwq:1,2017-01-21T04:45:00Z,26.0257,-81.7332,1.0,6.8,1111122 
NERRS,ioos:station:NOAA.NERRS:rkblhwq:1,2017-01-21T05:45:00Z,26.0257,-81.7332,1.0,6.6,1111122 
NERRS,ioos:station:NOAA.NERRS:rkblhwq:1,2017-01-21T06:45:00Z,26.0257,-81.7332,1.0,6.2,1111122 
NERRS,ioos:station:NOAA.NERRS:rkblhwq:1,2017-01-21T07:45:00Z,26.0257,-81.7332,1.0,5.9,1111122 
NERRS,ioos:station:NOAA.NERRS:rkblhwq:1,2017-01-21T08:45:00Z,26.0257,-81.7332,1.0,6.4,1111122 
NERRS,ioos:station:NOAA.NERRS:rkblhwq:1,2017-01-21T09:45:00Z,26.0257,-81.7332,1.0,6.4,1111122 
NERRS,ioos:station:NOAA.NERRS:rkblhwq:1,2017-01-21T10:45:00Z,26.0257,-81.7332,1.0,6.2,1111122 
NERRS,ioos:station:NOAA.NERRS:rkblhwq:1,2017-01-21T11:45:00Z,26.0257,-81.7332,1.0,6.3,1111122 
NERRS,ioos:station:NOAA.NERRS:rkblhwq:1,2017-01-21T12:45:00Z,26.0257,-81.7332,1.0,6.1,1111122 
NERRS,ioos:station:NOAA.NERRS:rkblhwq:1,2017-01-21T13:45:00Z,26.0257,-81.7332,1.0,6.0,1111122 
NERRS,ioos:station:NOAA.NERRS:rkblhwq:1,2017-01-21T14:45:00Z,26.0257,-81.7332,1.0,5.7,1111122 
NERRS,ioos:station:NOAA.NERRS:rkblhwq:1,2017-01-21T15:45:00Z,26.0257,-81.7332,1.0,5.6,1111122 
NERRS,ioos:station:NOAA.NERRS:rkblhwq:1,2017-01-21T16:45:00Z,26.0257,-81.7332,1.0,6.4,1111122 
NERRS,ioos:station:NOAA.NERRS:rkblhwq:1,2017-01-21T17:45:00Z,26.0257,-81.7332,1.0,6.8,1111122 
NERRS,ioos:station:NOAA.NERRS:rkblhwq:1,2017-01-21T18:45:00Z,26.0257,-81.7332,1.0,7.3,1111122 
NERRS,ioos:station:NOAA.NERRS:rkblhwq:1,2017-01-21T19:45:00Z,26.0257,-81.7332,1.0,7.2,1111122 
NERRS,ioos:station:NOAA.NERRS:rkblhwq:1,2017-01-21T20:45:00Z,26.0257,-81.7332,1.0,7.8,1111122 
NERRS,ioos:station:NOAA.NERRS:rkblhwq:1,2017-01-21T21:45:00Z,26.0257,-81.7332,1.0,7.5,1111122 
NERRS,ioos:station:NOAA.NERRS:rkblhwq:1,2017-01-21T22:45:00Z,26.0257,-81.7332,1.0,7.6,1111122 
NERRS,ioos:station:NOAA.NERRS:rkblhwq:1,2017-01-21T23:45:00Z,26.0257,-81.7332,1.0,7.1,1111122 
NERRS,ioos:station:NOAA.NERRS:rkblhwq:1,2017-01-22T00:45:00Z,26.0257,-81.7332,1.0,6.8,1111122 
NERRS,ioos:station:NOAA.NERRS:rkblhwq:1,2017-01-22T01:45:00Z,26.0257,-81.7332,1.0,5.6,1111122 
NERRS,ioos:station:NOAA.NERRS:rkblhwq:1,2017-01-22T02:45:00Z,26.0257,-81.7332,1.0,6.7,1111122 
NERRS,ioos:station:NOAA.NERRS:rkblhwq:1,2017-01-22T03:45:00Z,26.0257,-81.7332,1.0,6.6,1111122 
NERRS,ioos:station:NOAA.NERRS:rkblhwq:1,2017-01-22T04:45:00Z,26.0257,-81.7332,1.0,6.3,1111122 
NERRS,ioos:station:NOAA.NERRS:rkblhwq:1,2017-01-22T05:45:00Z,26.0257,-81.7332,1.0,6.3,1111122 
NERRS,ioos:station:NOAA.NERRS:rkblhwq:1,2017-01-22T06:45:00Z,26.0257,-81.7332,1.0,6.1,1111122 
NERRS,ioos:station:NOAA.NERRS:rkblhwq:1,2017-01-22T07:45:00Z,26.0257,-81.7332,1.0,5.9,1111122 
NERRS,ioos:station:NOAA.NERRS:rkblhwq:1,2017-01-22T08:45:00Z,26.0257,-81.7332,1.0,5.4,1111122 
NERRS,ioos:station:NOAA.NERRS:rkblhwq:1,2017-01-22T09:45:00Z,26.0257,-81.7332,1.0,6.3,1111122 
NERRS,ioos:station:NOAA.NERRS:rkblhwq:1,2017-01-22T10:45:00Z,26.0257,-81.7332,1.0,6.3,1111122 
NERRS,ioos:station:NOAA.NERRS:rkblhwq:1,2017-01-22T11:45:00Z,26.0257,-81.7332,1.0,6.1,1111122 
NERRS,ioos:station:NOAA.NERRS:rkblhwq:1,2017-01-22T12:45:00Z,26.0257,-81.7332,1.0,6.1,1111122 
NERRS,ioos:station:NOAA.NERRS:rkblhwq:1,2017-01-22T13:45:00Z,26.0257,-81.7332,1.0,6.1,1111122 
NERRS,ioos:station:NOAA.NERRS:rkblhwq:1,2017-01-22T14:45:00Z,26.0257,-81.7332,1.0,6.1,1111122 
NERRS,ioos:station:NOAA.NERRS:rkblhwq:1,2017-01-22T15:45:00Z,26.0257,-81.7332,1.0,5.7,1111122 
NERRS,ioos:station:NOAA.NERRS:rkblhwq:1,2017-01-22T16:45:00Z,26.0257,-81.7332,1.0,6.0,1111122 
NERRS,ioos:station:NOAA.NERRS:rkblhwq:1,2017-01-22T17:45:00Z,26.0257,-81.7332,1.0,6.4,1111122 
NERRS,ioos:station:NOAA.NERRS:rkblhwq:1,2017-01-22T18:45:00Z,26.0257,-81.7332,1.0,6.8,1111122 
NERRS,ioos:station:NOAA.NERRS:rkblhwq:1,2017-01-22T19:45:00Z,26.0257,-81.7332,1.0,6.8,1111122 
NERRS,ioos:station:NOAA.NERRS:rkblhwq:1,2017-01-22T20:45:00Z,26.0257,-81.7332,1.0,6.7,1111122 
NERRS,ioos:station:NOAA.NERRS:rkblhwq:1,2017-01-22T21:45:00Z,26.0257,-81.7332,1.0,7.2,1111122 
NERRS,ioos:station:NOAA.NERRS:rkblhwq:1,2017-01-22T22:45:00Z,26.0257,-81.7332,1.0,7.2,1111122 
NERRS,ioos:station:NOAA.NERRS:rkblhwq:1,2017-01-22T23:45:00Z,26.0257,-81.7332,1.0,6.6,1111122 
NERRS,ioos:station:NOAA.NERRS:rkblhwq:1,2017-01-23T00:45:00Z,26.0257,-81.7332,1.0,7.0,1111122 
NERRS,ioos:station:NOAA.NERRS:rkblhwq:1,2017-01-23T01:45:00Z,26.0257,-81.7332,1.0,7.0,1111122 
NERRS,ioos:station:NOAA.NERRS:rkblhwq:1,2017-01-23T02:45:00Z,26.0257,-81.7332,1.0,6.9,1111122 
NERRS,ioos:station:NOAA.NERRS:rkblhwq:1,2017-01-23T03:45:00Z,26.0257,-81.7332,1.0,6.9,1111122 
NERRS,ioos:station:NOAA.NERRS:rkblhwq:1,2017-01-23T04:45:00Z,26.0257,-81.7332,1.0,6.2,1111122 
NERRS,ioos:station:NOAA.NERRS:rkblhwq:1,2017-01-23T05:45:00Z,26.0257,-81.7332,1.0,6.3,1111122 
NERRS,ioos:station:NOAA.NERRS:rkblhwq:1,2017-01-23T06:45:00Z,26.0257,-81.7332,1.0,6.3,1111122 
NERRS,ioos:station:NOAA.NERRS:rkblhwq:1,2017-01-23T07:45:00Z,26.0257,-81.7332,1.0,6.6,1111122 
NERRS,ioos:station:NOAA.NERRS:rkblhwq:1,2017-01-23T08:45:00Z,26.0257,-81.7332,1.0,6.2,1111122 
NERRS,ioos:station:NOAA.NERRS:rkblhwq:1,2017-01-23T09:45:00Z,26.0257,-81.7332,1.0,5.3,1111122 
NERRS,ioos:station:NOAA.NERRS:rkblhwq:1,2017-01-23T10:45:00Z,26.0257,-81.7332,1.0,5.9,1111122 
NERRS,ioos:station:NOAA.NERRS:rkblhwq:1,2017-01-23T11:45:00Z,26.0257,-81.7332,1.0,5.7,1111122 
NERRS,ioos:station:NOAA.NERRS:rkblhwq:1,2017-01-23T12:45:00Z,26.0257,-81.7332,1.0,5.8,1111122 
NERRS,ioos:station:NOAA.NERRS:rkblhwq:1,2017-01-23T13:45:00Z,26.0257,-81.7332,1.0,5.9,1111122 
NERRS,ioos:station:NOAA.NERRS:rkblhwq:1,2017-01-23T14:45:00Z,26.0257,-81.7332,1.0,5.6,1111122 
NERRS,ioos:station:NOAA.NERRS:rkblhwq:1,2017-01-23T15:45:00Z,26.0257,-81.7332,1.0,5.7,1111122 
NERRS,ioos:station:NOAA.NERRS:rkblhwq:1,2017-01-23T16:45:00Z,26.0257,-81.7332,1.0,6.1,1111122 
NERRS,ioos:station:NOAA.NERRS:rkblhwq:1,2017-01-23T17:45:00Z,26.0257,-81.7332,1.3,6.6,1111122 
NERRS,ioos:station:NOAA.NERRS:rkblhwq:1,2017-01-23T18:45:00Z,26.0257,-81.7332,1.23,6.4,1111122 
NERRS,ioos:station:NOAA.NERRS:rkblhwq:1,2017-01-23T19:45:00Z,26.0257,-81.7332,1.15,6.9,1111122 
NERRS,ioos:station:NOAA.NERRS:rkblhwq:1,2017-01-23T20:45:00Z,26.0257,-81.7332,1.07,6.5,1111122 
NERRS,ioos:station:NOAA.NERRS:rkblhwq:1,2017-01-23T21:45:00Z,26.0257,-81.7332,1.02,6.3,1111122 
NERRS,ioos:station:NOAA.NERRS:rkblhwq:1,2017-01-23T22:45:00Z,26.0257,-81.7332,1.03,6.8,1111122 
NERRS,ioos:station:NOAA.NERRS:rkblhwq:1,2017-01-23T23:45:00Z,26.0257,-81.7332,1.13,6.7,1111122 
NERRS,ioos:station:NOAA.NERRS:rkblhwq:1,2017-01-24T00:45:00Z,26.0257,-81.7332,1.24,6.3,1111122 
NERRS,ioos:station:NOAA.NERRS:rkblhwq:1,2017-01-24T01:45:00Z,26.0257,-81.7332,1.33,6.1,1111122 
NERRS,ioos:station:NOAA.NERRS:rkblhwq:1,2017-01-24T02:45:00Z,26.0257,-81.7332,1.36,5.7,1111122 
NERRS,ioos:station:NOAA.NERRS:rkblhwq:1,2017-01-24T03:45:00Z,26.0257,-81.7332,1.35,6.0,1111122 
NERRS,ioos:station:NOAA.NERRS:rkblhwq:1,2017-01-24T04:45:00Z,26.0257,-81.7332,1.27,6.4,1111122 
NERRS,ioos:station:NOAA.NERRS:rkblhwq:1,2017-01-24T05:45:00Z,26.0257,-81.7332,1.17,6.2,1111122 
NERRS,ioos:station:NOAA.NERRS:rkblhwq:1,2017-01-24T06:45:00Z,26.0257,-81.7332,1.04,6.2,1111122 
NERRS,ioos:station:NOAA.NERRS:rkblhwq:1,2017-01-24T07:45:00Z,26.0257,-81.7332,0.91,6.0,1111122 
NERRS,ioos:station:NOAA.NERRS:rkblhwq:1,2017-01-24T08:45:00Z,26.0257,-81.7332,0.8,6.0,1111122 
NERRS,ioos:station:NOAA.NERRS:rkblhwq:1,2017-01-24T09:45:00Z,26.0257,-81.7332,0.69,5.9,1111122 
NERRS,ioos:station:NOAA.NERRS:rkblhwq:1,2017-01-24T10:45:00Z,26.0257,-81.7332,0.6,5.7,1111122 
NERRS,ioos:station:NOAA.NERRS:rkblhwq:1,2017-01-24T11:45:00Z,26.0257,-81.7332,0.57,5.1,1111122 
NERRS,ioos:station:NOAA.NERRS:rkblhwq:1,2017-01-24T12:45:00Z,26.0257,-81.7332,0.64,5.8,1111122 
NERRS,ioos:station:NOAA.NERRS:rkblhwq:1,2017-01-24T13:45:00Z,26.0257,-81.7332,0.76,5.9,1111122 
NERRS,ioos:station:NOAA.NERRS:rkblhwq:1,2017-01-24T14:45:00Z,26.0257,-81.7332,0.9,6.5,1111122 
NERRS,ioos:station:NOAA.NERRS:rkblhwq:1,2017-01-24T15:45:00Z,26.0257,-81.7332,1.04,6.5,1111122 
NERRS,ioos:station:NOAA.NERRS:rkblhwq:1,2017-01-24T16:45:00Z,26.0257,-81.7332,1.14,6.8,1111122 
NERRS,ioos:station:NOAA.NERRS:rkblhwq:1,2017-01-24T17:45:00Z,26.0257,-81.7332,1.18,6.2,1111122 
NERRS,ioos:station:NOAA.NERRS:rkblhwq:1,2017-01-24T18:45:00Z,26.0257,-81.7332,1.13,6.8,1111122 
NERRS,ioos:station:NOAA.NERRS:rkblhwq:1,2017-01-24T19:45:00Z,26.0257,-81.7332,1.06,7.8,1111122 
NERRS,ioos:station:NOAA.NERRS:rkblhwq:1,2017-01-24T20:45:00Z,26.0257,-81.7332,1.01,7.5,1111122 
NERRS,ioos:station:NOAA.NERRS:rkblhwq:1,2017-01-24T21:45:00Z,26.0257,-81.7332,0.96,7.3,1111122 
NERRS,ioos:station:NOAA.NERRS:rkblhwq:1,2017-01-24T22:45:00Z,26.0257,-81.7332,0.95,7.1,1111122 
NERRS,ioos:station:NOAA.NERRS:rkblhwq:1,2017-01-24T23:45:00Z,26.0257,-81.7332,1.0,7.6,1111122 
NERRS,ioos:station:NOAA.NERRS:rkblhwq:1,2017-01-25T00:45:00Z,26.0257,-81.7332,1.08,7.4,1111122 
NERRS,ioos:station:NOAA.NERRS:rkblhwq:1,2017-01-25T01:45:00Z,26.0257,-81.7332,1.18,7.3,1111122 
NERRS,ioos:station:NOAA.NERRS:rkblhwq:1,2017-01-25T02:45:00Z,26.0257,-81.7332,1.28,7.2,1111122 
NERRS,ioos:station:NOAA.NERRS:rkblhwq:1,2017-01-25T03:45:00Z,26.0257,-81.7332,1.34,6.9,1111122 
NERRS,ioos:station:NOAA.NERRS:rkblhwq:1,2017-01-25T04:45:00Z,26.0257,-81.7332,1.35,6.0,1111122 
NERRS,ioos:station:NOAA.NERRS:rkblhwq:1,2017-01-25T05:45:00Z,26.0257,-81.7332,1.28,6.9,1111122 
NERRS,ioos:station:NOAA.NERRS:rkblhwq:1,2017-01-25T06:45:00Z,26.0257,-81.7332,1.17,6.6,1111122 
NERRS,ioos:station:NOAA.NERRS:rkblhwq:1,2017-01-25T07:45:00Z,26.0257,-81.7332,1.03,6.4,1111122 
NERRS,ioos:station:NOAA.NERRS:rkblhwq:1,2017-01-25T08:45:00Z,26.0257,-81.7332,0.89,6.3,1111122 
NERRS,ioos:station:NOAA.NERRS:rkblhwq:1,2017-01-25T09:45:00Z,26.0257,-81.7332,0.76,6.1,1111122 
NERRS,ioos:station:NOAA.NERRS:rkblhwq:1,2017-01-25T10:45:00Z,26.0257,-81.7332,0.65,5.9,1111122 
NERRS,ioos:station:NOAA.NERRS:rkblhwq:1,2017-01-25T11:45:00Z,26.0257,-81.7332,0.58,5.5,1111122 
NERRS,ioos:station:NOAA.NERRS:rkblhwq:1,2017-01-25T12:45:00Z,26.0257,-81.7332,0.62,5.8,1111122 
NERRS,ioos:station:NOAA.NERRS:rkblhwq:1,2017-01-25T13:45:00Z,26.0257,-81.7332,0.73,5.9,1111122 
NERRS,ioos:station:NOAA.NERRS:rkblhwq:1,2017-01-25T14:45:00Z,26.0257,-81.7332,0.86,6.4,1111122 
NERRS,ioos:station:NOAA.NERRS:rkblhwq:1,2017-01-25T15:45:00Z,26.0257,-81.7332,1.02,6.7,1111122 
NERRS,ioos:station:NOAA.NERRS:rkblhwq:1,2017-01-25T16:45:00Z,26.0257,-81.7332,1.16,7.0,1111122 
NERRS,ioos:station:NOAA.NERRS:rkblhwq:1,2017-01-25T17:45:00Z,26.0257,-81.7332,1.26,7.2,1111122 
NERRS,ioos:station:NOAA.NERRS:rkblhwq:1,2017-01-25T18:45:00Z,26.0257,-81.7332,1.27,7.1,1111122 
NERRS,ioos:station:NOAA.NERRS:rkblhwq:1,2017-01-25T19:45:00Z,26.0257,-81.7332,1.2,7.5,1111122 
NERRS,ioos:station:NOAA.NERRS:rkblhwq:1,2017-01-25T20:45:00Z,26.0257,-81.7332,1.1,7.7,1111122 
NERRS,ioos:station:NOAA.NERRS:rkblhwq:1,2017-01-25T21:45:00Z,26.0257,-81.7332,1.03,7.7,1111122 
NERRS,ioos:station:NOAA.NERRS:rkblhwq:1,2017-01-25T22:45:00Z,26.0257,-81.7332,0.98,6.8,1111122 
NERRS,ioos:station:NOAA.NERRS:rkblhwq:1,2017-01-25T23:45:00Z,26.0257,-81.7332,1.0,7.5,1111122 
NERRS,ioos:station:NOAA.NERRS:rkblhwq:1,2017-01-26T00:45:00Z,26.0257,-81.7332,1.09,7.4,1111122 
NERRS,ioos:station:NOAA.NERRS:rkblhwq:1,2017-01-26T01:45:00Z,26.0257,-81.7332,1.21,7.2,1111122 
NERRS,ioos:station:NOAA.NERRS:rkblhwq:1,2017-01-26T02:45:00Z,26.0257,-81.7332,1.31,7.2,1111122 
NERRS,ioos:station:NOAA.NERRS:rkblhwq:1,2017-01-26T03:45:00Z,26.0257,-81.7332,1.41,6.8,1111122 
NERRS,ioos:station:NOAA.NERRS:rkblhwq:1,2017-01-26T04:45:00Z,26.0257,-81.7332,1.47,6.6,1111122 
NERRS,ioos:station:NOAA.NERRS:rkblhwq:1,2017-01-26T05:45:00Z,26.0257,-81.7332,1.45,6.4,1111122 
NERRS,ioos:station:NOAA.NERRS:rkblhwq:1,2017-01-26T06:45:00Z,26.0257,-81.7332,1.35,6.8,1111122 
NERRS,ioos:station:NOAA.NERRS:rkblhwq:1,2017-01-26T07:45:00Z,26.0257,-81.7332,1.22,6.6,1111122 
NERRS,ioos:station:NOAA.NERRS:rkblhwq:1,2017-01-26T08:45:00Z,26.0257,-81.7332,1.07,6.2,1111122 
NERRS,ioos:station:NOAA.NERRS:rkblhwq:1,2017-01-26T09:45:00Z,26.0257,-81.7332,0.92,6.4,1111122 
NERRS,ioos:station:NOAA.NERRS:rkblhwq:1,2017-01-26T10:45:00Z,26.0257,-81.7332,0.78,6.0,1111122 
NERRS,ioos:station:NOAA.NERRS:rkblhwq:1,2017-01-26T11:45:00Z,26.0257,-81.7332,0.67,5.8,1111122 
NERRS,ioos:station:NOAA.NERRS:rkblhwq:1,2017-01-26T12:45:00Z,26.0257,-81.7332,0.62,5.2,1111122 
NERRS,ioos:station:NOAA.NERRS:rkblhwq:1,2017-01-26T13:45:00Z,26.0257,-81.7332,0.7,5.8,1111122 
NERRS,ioos:station:NOAA.NERRS:rkblhwq:1,2017-01-26T14:45:00Z,26.0257,-81.7332,0.83,6.2,1111122 
NERRS,ioos:station:NOAA.NERRS:rkblhwq:1,2017-01-26T15:45:00Z,26.0257,-81.7332,0.98,6.7,1111122 
NERRS,ioos:station:NOAA.NERRS:rkblhwq:1,2017-01-26T16:45:00Z,26.0257,-81.7332,1.14,6.9,1111122 
NERRS,ioos:station:NOAA.NERRS:rkblhwq:1,2017-01-26T17:45:00Z,26.0257,-81.7332,1.27,7.2,1111122 
NERRS,ioos:station:NOAA.NERRS:rkblhwq:1,2017-01-26T18:45:00Z,26.0257,-81.7332,1.33,7.0,1111122 
NERRS,ioos:station:NOAA.NERRS:rkblhwq:1,2017-01-26T19:45:00Z,26.0257,-81.7332,1.26,7.6,1111122 
NERRS,ioos:station:NOAA.NERRS:rkblhwq:1,2017-01-26T20:45:00Z,26.0257,-81.7332,1.16,7.7,1111122 
NERRS,ioos:station:NOAA.NERRS:rkblhwq:1,2017-01-26T21:45:00Z,26.0257,-81.7332,1.07,7.6,1111122 
NERRS,ioos:station:NOAA.NERRS:rkblhwq:1,2017-01-26T22:45:00Z,26.0257,-81.7332,0.99,7.0,1111122 
NERRS,ioos:station:NOAA.NERRS:rkblhwq:1,2017-01-26T23:45:00Z,26.0257,-81.7332,0.94,6.8,1111122 
NERRS,ioos:station:NOAA.NERRS:rkblhwq:1,2017-01-27T00:45:00Z,26.0257,-81.7332,0.99,7.1,1111122 
NERRS,ioos:station:NOAA.NERRS:rkblhwq:1,2017-01-27T01:45:00Z,26.0257,-81.7332,1.11,7.0,1111122 
NERRS,ioos:station:NOAA.NERRS:rkblhwq:1,2017-01-27T02:45:00Z,26.0257,-81.7332,1.25,7.0,1111122 
NERRS,ioos:station:NOAA.NERRS:rkblhwq:1,2017-01-27T03:45:00Z,26.0257,-81.7332,1.38,6.8,1111122 
NERRS,ioos:station:NOAA.NERRS:rkblhwq:1,2017-01-27T04:45:00Z,26.0257,-81.7332,1.48,6.7,1111122 
NERRS,ioos:station:NOAA.NERRS:rkblhwq:1,2017-01-27T05:45:00Z,26.0257,-81.7332,1.52,5.5,1111122 
NERRS,ioos:station:NOAA.NERRS:rkblhwq:1,2017-01-27T06:45:00Z,26.0257,-81.7332,1.44,6.7,1111122 
NERRS,ioos:station:NOAA.NERRS:rkblhwq:1,2017-01-27T07:45:00Z,26.0257,-81.7332,1.31,6.7,1111122 
NERRS,ioos:station:NOAA.NERRS:rkblhwq:1,2017-01-27T08:45:00Z,26.0257,-81.7332,1.16,6.1,1111122 
NERRS,ioos:station:NOAA.NERRS:rkblhwq:1,2017-01-27T09:45:00Z,26.0257,-81.7332,1.0,5.9,1111122 
NERRS,ioos:station:NOAA.NERRS:rkblhwq:1,2017-01-27T10:45:00Z,26.0257,-81.7332,0.86,5.9,1111122 
NERRS,ioos:station:NOAA.NERRS:rkblhwq:1,2017-01-27T11:45:00Z,26.0257,-81.7332,0.73,5.7,1111122 
NERRS,ioos:station:NOAA.NERRS:rkblhwq:1,2017-01-27T12:45:00Z,26.0257,-81.7332,0.64,5.5,1111122 
NERRS,ioos:station:NOAA.NERRS:rkblhwq:1,2017-01-27T13:45:00Z,26.0257,-81.7332,0.67,5.7,1111122 
NERRS,ioos:station:NOAA.NERRS:rkblhwq:1,2017-01-27T14:45:00Z,26.0257,-81.7332,0.78,5.9,1111122 
NERRS,ioos:station:NOAA.NERRS:rkblhwq:1,2017-01-27T15:45:00Z,26.0257,-81.7332,0.92,6.4,1111122 
NERRS,ioos:station:NOAA.NERRS:rkblhwq:1,2017-01-27T16:45:00Z,26.0257,-81.7332,1.07,6.6,1111122 
NERRS,ioos:station:NOAA.NERRS:rkblhwq:1,2017-01-27T17:45:00Z,26.0257,-81.7332,1.21,6.8,1111122 
NERRS,ioos:station:NOAA.NERRS:rkblhwq:1,2017-01-27T18:45:00Z,26.0257,-81.7332,1.3,6.5,1111122 
NERRS,ioos:station:NOAA.NERRS:rkblhwq:1,2017-01-27T19:45:00Z,26.0257,-81.7332,1.28,7.2,1111122 
NERRS,ioos:station:NOAA.NERRS:rkblhwq:1,2017-01-27T20:45:00Z,26.0257,-81.7332,1.17,7.4,1111122 
NERRS,ioos:station:NOAA.NERRS:rkblhwq:1,2017-01-27T21:45:00Z,26.0257,-81.7332,1.07,7.3,1111122 
NERRS,ioos:station:NOAA.NERRS:rkblhwq:1,2017-01-27T22:45:00Z,26.0257,-81.7332,0.97,7.0,1111122 
NERRS,ioos:station:NOAA.NERRS:rkblhwq:1,2017-01-27T23:45:00Z,26.0257,-81.7332,0.89,6.6,1111122 
NERRS,ioos:station:NOAA.NERRS:rkblhwq:1,2017-01-28T00:45:00Z,26.0257,-81.7332,0.86,5.6,1111122 
NERRS,ioos:station:NOAA.NERRS:rkblhwq:1,2017-01-28T01:45:00Z,26.0257,-81.7332,0.93,6.6,1111122 
NERRS,ioos:station:NOAA.NERRS:rkblhwq:1,2017-01-28T02:45:00Z,26.0257,-81.7332,1.04,6.5,1111122 
NERRS,ioos:station:NOAA.NERRS:rkblhwq:1,2017-01-28T03:45:00Z,26.0257,-81.7332,1.18,6.5,1111122 
NERRS,ioos:station:NOAA.NERRS:rkblhwq:1,2017-01-28T04:45:00Z,26.0257,-81.7332,1.31,6.4,1111122 
NERRS,ioos:station:NOAA.NERRS:rkblhwq:1,2017-01-28T05:45:00Z,26.0257,-81.7332,1.41,6.0,1111122 
NERRS,ioos:station:NOAA.NERRS:rkblhwq:1,2017-01-28T06:45:00Z,26.0257,-81.7332,1.41,5.6,1111122 
NERRS,ioos:station:NOAA.NERRS:rkblhwq:1,2017-01-28T07:45:00Z,26.0257,-81.7332,1.29,6.4,1111122 
NERRS,ioos:station:NOAA.NERRS:rkblhwq:1,2017-01-28T08:45:00Z,26.0257,-81.7332,1.14,5.9,1111122 
NERRS,ioos:station:NOAA.NERRS:rkblhwq:1,2017-01-28T09:45:00Z,26.0257,-81.7332,0.99,5.7,1111122 
NERRS,ioos:station:NOAA.NERRS:rkblhwq:1,2017-01-28T10:45:00Z,26.0257,-81.7332,0.86,5.6,1111122 
NERRS,ioos:station:NOAA.NERRS:rkblhwq:1,2017-01-28T11:45:00Z,26.0257,-81.7332,0.73,5.5,1111122 
NERRS,ioos:station:NOAA.NERRS:rkblhwq:1,2017-01-28T12:45:00Z,26.0257,-81.7332,0.62,5.3,1111122 
NERRS,ioos:station:NOAA.NERRS:rkblhwq:1,2017-01-28T13:45:00Z,26.0257,-81.7332,0.54,5.1,1111122 
NERRS,ioos:station:NOAA.NERRS:rkblhwq:1,2017-01-28T14:45:00Z,26.0257,-81.7332,0.6,5.8,1111122 
NERRS,ioos:station:NOAA.NERRS:rkblhwq:1,2017-01-28T15:45:00Z,26.0257,-81.7332,0.72,6.6,1111122 
NERRS,ioos:station:NOAA.NERRS:rkblhwq:1,2017-01-28T16:45:00Z,26.0257,-81.7332,0.86,6.9,1111122 
NERRS,ioos:station:NOAA.NERRS:rkblhwq:1,2017-01-28T17:45:00Z,26.0257,-81.7332,1.0,7.2,1111122 
NERRS,ioos:station:NOAA.NERRS:rkblhwq:1,2017-01-28T18:45:00Z,26.0257,-81.7332,1.13,7.3,1111122 
NERRS,ioos:station:NOAA.NERRS:rkblhwq:1,2017-01-28T19:45:00Z,26.0257,-81.7332,1.2,7.3,1111122 
NERRS,ioos:station:NOAA.NERRS:rkblhwq:1,2017-01-28T20:45:00Z,26.0257,-81.7332,1.15,7.5,1111122 
NERRS,ioos:station:NOAA.NERRS:rkblhwq:1,2017-01-28T21:45:00Z,26.0257,-81.7332,1.06,7.7,1111122 
NERRS,ioos:station:NOAA.NERRS:rkblhwq:1,2017-01-28T22:45:00Z,26.0257,-81.7332,0.96,7.4,1111122 
NERRS,ioos:station:NOAA.NERRS:rkblhwq:1,2017-01-28T23:45:00Z,26.0257,-81.7332,0.89,7.2,1111122 
NERRS,ioos:station:NOAA.NERRS:rkblhwq:1,2017-01-29T00:45:00Z,26.0257,-81.7332,0.84,6.9,1111122 
NERRS,ioos:station:NOAA.NERRS:rkblhwq:1,2017-01-29T01:45:00Z,26.0257,-81.7332,0.85,7.0,1111122 
NERRS,ioos:station:NOAA.NERRS:rkblhwq:1,2017-01-29T02:45:00Z,26.0257,-81.7332,0.93,6.9,1111122 
NERRS,ioos:station:NOAA.NERRS:rkblhwq:1,2017-01-29T03:45:00Z,26.0257,-81.7332,1.06,6.9,1111122 
NERRS,ioos:station:NOAA.NERRS:rkblhwq:1,2017-01-29T04:45:00Z,26.0257,-81.7332,1.2,6.9,1111122 
NERRS,ioos:station:NOAA.NERRS:rkblhwq:1,2017-01-29T05:45:00Z,26.0257,-81.7332,1.32,6.7,1111122 
NERRS,ioos:station:NOAA.NERRS:rkblhwq:1,2017-01-29T06:45:00Z,26.0257,-81.7332,1.41,6.2,1111122 
NERRS,ioos:station:NOAA.NERRS:rkblhwq:1,2017-01-29T07:45:00Z,26.0257,-81.7332,1.37,6.6,1111122 
NERRS,ioos:station:NOAA.NERRS:rkblhwq:1,2017-01-29T08:45:00Z,26.0257,-81.7332,1.25,6.5,1111122 
NERRS,ioos:station:NOAA.NERRS:rkblhwq:1,2017-01-29T09:45:00Z,26.0257,-81.7332,1.1,6.3,1111122 
NERRS,ioos:station:NOAA.NERRS:rkblhwq:1,2017-01-29T10:45:00Z,26.0257,-81.7332,0.95,6.2,1111122 
NERRS,ioos:station:NOAA.NERRS:rkblhwq:1,2017-01-29T11:45:00Z,26.0257,-81.7332,0.82,6.2,1111122 
NERRS,ioos:station:NOAA.NERRS:rkblhwq:1,2017-01-29T12:45:00Z,26.0257,-81.7332,0.69,6.1,1111122 
NERRS,ioos:station:NOAA.NERRS:rkblhwq:1,2017-01-29T13:45:00Z,26.0257,-81.7332,0.58,5.9,1111122 
NERRS,ioos:station:NOAA.NERRS:rkblhwq:1,2017-01-29T14:45:00Z,26.0257,-81.7332,0.54,5.7,1111122 
NERRS,ioos:station:NOAA.NERRS:rkblhwq:1,2017-01-29T15:45:00Z,26.0257,-81.7332,0.65,6.4,1111122 
NERRS,ioos:station:NOAA.NERRS:rkblhwq:1,2017-01-29T16:45:00Z,26.0257,-81.7332,0.79,6.5,1111122 
NERRS,ioos:station:NOAA.NERRS:rkblhwq:1,2017-01-29T17:45:00Z,26.0257,-81.7332,0.94,6.7,1111122 
NERRS,ioos:station:NOAA.NERRS:rkblhwq:1,2017-01-29T18:45:00Z,26.0257,-81.7332,1.1,6.8,1111122 
NERRS,ioos:station:NOAA.NERRS:rkblhwq:1,2017-01-29T19:45:00Z,26.0257,-81.7332,1.24,6.8,1111122 
NERRS,ioos:station:NOAA.NERRS:rkblhwq:1,2017-01-29T20:45:00Z,26.0257,-81.7332,1.26,6.0,1111122 
NERRS,ioos:station:NOAA.NERRS:rkblhwq:1,2017-01-29T21:45:00Z,26.0257,-81.7332,1.17,7.1,1111122 
NERRS,ioos:station:NOAA.NERRS:rkblhwq:1,2017-01-29T22:45:00Z,26.0257,-81.7332,1.06,7.0,1111122 
NERRS,ioos:station:NOAA.NERRS:rkblhwq:1,2017-01-29T23:45:00Z,26.0257,-81.7332,0.96,6.8,1111122 
NERRS,ioos:station:NOAA.NERRS:rkblhwq:1,2017-01-30T00:45:00Z,26.0257,-81.7332,0.87,6.6,1111122 
NERRS,ioos:station:NOAA.NERRS:rkblhwq:1,2017-01-30T01:45:00Z,26.0257,-81.7332,0.82,6.4,1111122 
NERRS,ioos:station:NOAA.NERRS:rkblhwq:1,2017-01-30T02:45:00Z,26.0257,-81.7332,0.88,6.6,1111122 
NERRS,ioos:station:NOAA.NERRS:rkblhwq:1,2017-01-30T03:45:00Z,26.0257,-81.7332,1.0,6.6,1111122 
NERRS,ioos:station:NOAA.NERRS:rkblhwq:1,2017-01-30T04:45:00Z,26.0257,-81.7332,1.14,6.6,1111122 
NERRS,ioos:station:NOAA.NERRS:rkblhwq:1,2017-01-30T05:45:00Z,26.0257,-81.7332,1.29,6.5,1111122 
NERRS,ioos:station:NOAA.NERRS:rkblhwq:1,2017-01-30T06:45:00Z,26.0257,-81.7332,1.42,6.5,1111122 
NERRS,ioos:station:NOAA.NERRS:rkblhwq:1,2017-01-30T07:45:00Z,26.0257,-81.7332,1.49,5.9,1111122 
NERRS,ioos:station:NOAA.NERRS:rkblhwq:1,2017-01-30T08:45:00Z,26.0257,-81.7332,1.42,6.5,1111122 
NERRS,ioos:station:NOAA.NERRS:rkblhwq:1,2017-01-30T09:45:00Z,26.0257,-81.7332,1.3,6.5,1111122 